Location: Browne Barr
(41.2080°N, 111.9480°W)
Time: 20:19:31
(UTC+00:00)

X-37B - Visible Passes

Search period start: 01 August 2021 00:00
Search period end: 11 August 2021 00:00
Orbit: 383 x 392 km, 45.0° (Epoch: 01 July)

Date Brightness Start Highest point End Pass type
(mag) Time Alt. Az. Time Alt. Az. Time Alt. Az.
01 Aug 1.0 11:12:39 22° SW 11:14:27 52° SSE 11:17:34 10° ENE visible
02 Aug 2.1 10:16:49 27° SE 10:16:49 27° SE 10:19:01 10° E visible
02 Aug 1.0 11:49:32 10° W 11:52:42 61° NNW 11:55:53 10° ENE visible
03 Aug 0.5 10:53:14 39° WSW 10:54:18 89° S 10:57:30 10° ENE visible
04 Aug 2.4 09:57:21 28° E 09:57:21 28° E 09:59:05 10° ENE visible
04 Aug 1.4 11:29:37 10° W 11:32:40 46° N 11:35:46 10° ENE visible
05 Aug 0.9 10:33:44 52° WNW 10:34:13 61° NNW 10:37:24 10° ENE visible
06 Aug 3.1 09:37:52 20° ENE 09:37:52 20° ENE 09:39:01 10° ENE visible
06 Aug 1.8 11:10:08 14° WNW 11:12:40 40° N 11:15:43 10° ENE visible
07 Aug 1.5 10:14:18 45° N 10:14:18 45° N 10:17:17 10° ENE visible
07 Aug 1.7 11:48:05 10° WNW 11:51:10 44° N 11:54:15 10° E visible
08 Aug 3.8 09:18:30 13° ENE 09:18:30 13° ENE 09:18:54 10° ENE visible
08 Aug 1.8 10:50:47 19° WNW 10:52:41 39° N 10:55:43 10° ENE visible
09 Aug 2.5 09:55:05 31° NE 09:55:05 31° NE 09:57:14 10° ENE visible
09 Aug 1.2 11:28:00 10° WNW 11:31:08 56° NNE 11:34:18 10° E visible
10 Aug 1.6 10:31:48 34° NW 10:32:41 44° N 10:35:46 10° E visible
